VK4RM-13 Weather Reports


time (UTC)temp
C
wind
direction
speed
KPH
gust
KPH
rain 1hr
cm
rain 24hr
cm
rain mn
cm
humidity
%
barometer
mb
20260508213629 13 316 0.0 3.2 0.00 0.00 0.00 79 1000.3
20260508212629 12 316 0.0 3.2 0.00 0.00 0.00 80 1000.2
20260508211629 11 27 0.0 0.0 0.00 0.00 0.00 81 1000.2
20260508210629 11 27 0.0 0.0 0.00 0.00 0.00 82 1000.1
20260508205629 11 27 0.0 0.0 0.00 0.00 0.00 81 1000.0
20260508204629 11 28 0.0 0.0 0.00 0.00 0.00 80 999.9
20260508203629 10 28 0.0 0.0 0.00 0.00 0.00 79 999.7
20260508202629 10 28 0.0 0.0 0.00 0.00 0.00 79 999.6
20260508201629 10 28 0.0 0.0 0.00 0.00 0.00 79 999.5
20260508200629 11 28 0.0 0.0 0.00 0.00 0.00 78 999.5
20260508195629 11 28 0.0 0.0 0.00 0.00 0.00 79 999.4
20260508194629 11 28 0.0 0.0 0.00 0.00 0.00 78 999.2
20260508193629 11 28 0.0 0.0 0.00 0.00 0.00 77 999.0
20260508192629 11 28 0.0 0.0 0.00 0.00 0.00 75 998.9
20260508191629 11 28 0.0 0.0 0.00 0.00 0.00 75 998.9
20260508190629 11 28 0.0 0.0 0.00 0.00 0.00 73 998.7
20260508185629 12 28 0.0 0.0 0.00 0.00 0.00 72 998.6
20260508184629 12 28 0.0 0.0 0.00 0.00 0.00 70 998.7
20260508183629 12 96 0.0 0.0 0.00 0.00 0.00 68 998.6
20260508182629 12 96 3.2 6.4 0.00 0.00 0.00 62 998.6
20260508181629 11 13 0.0 3.2 0.00 0.00 0.00 73 998.4
20260508180629 11 32 0.0 0.0 0.00 0.00 0.00 77 998.4
20260508175629 11 32 0.0 0.0 0.00 0.00 0.00 77 998.4
20260508174629 11 32 0.0 0.0 0.00 0.00 0.00 80 998.4
20260508173629 11 32 0.0 0.0 0.00 0.00 0.00 79 998.2
20260508171629 11 32 0.0 0.0 0.00 0.00 0.00 79 998.4
20260508170629 10 32 0.0 0.0 0.00 0.00 0.00 79 998.5
20260508165630 10 32 0.0 0.0 0.00 0.00 0.00 80 998.5
20260508164629 10 32 0.0 0.0 0.00 0.00 0.00 82 998.6
20260508163629 10 32 0.0 0.0 0.00 0.00 0.00 83 998.4
20260508162629 10 38 0.0 0.0 0.00 0.00 0.00 83 998.5
20260508161629 10 37 0.0 0.0 0.00 0.00 0.00 83 998.5
20260508160629 10 38 0.0 0.0 0.00 0.00 0.00 82 998.7
20260508155629 10 53 0.0 0.0 0.00 0.00 0.00 83 998.7
20260508154629 10 53 0.0 0.0 0.00 0.00 0.00 83 998.8
20260508153629 11 53 0.0 0.0 0.00 0.00 0.00 83 998.9
20260508152629 11 53 0.0 0.0 0.00 0.00 0.00 83 998.9
20260508151629 11 53 0.0 0.0 0.00 0.00 0.00 83 998.9
20260508150629 11 53 0.0 0.0 0.00 0.00 0.00 83 998.9
20260508145629 11 53 0.0 0.0 0.00 0.00 0.00 82 999.0
20260508144629 11 53 0.0 0.0 0.00 0.00 0.00 82 999.0
20260508143629 11 53 0.0 0.0 0.00 0.00 0.00 83 999.0
20260508142629 11 53 0.0 0.0 0.00 0.00 0.00 83 999.1
20260508141630 12 53 0.0 0.0 0.00 0.00 0.00 83 999.1
20260508140629 12 53 0.0 0.0 0.00 0.00 0.00 83 999.1
20260508135630 12 53 0.0 0.0 0.00 0.03 0.00 82 999.1
20260508134629 12 53 0.0 0.0 0.00 0.03 0.00 82 999.2
20260508133629 12 65 0.0 0.0 0.00 0.03 0.00 82 999.3
20260508132630 12 65 0.0 0.0 0.00 0.03 0.00 81 999.2
20260508131629 12 65 0.0 0.0 0.00 0.03 0.00 81 999.3
20260508130629 13 65 0.0 0.0 0.00 0.03 0.00 81 999.3
20260508125629 13 65 0.0 0.0 0.00 0.03 0.00 79 999.2
20260508124629 13 65 0.0 0.0 0.00 0.03 0.00 79 999.3
20260508123629 14 65 0.0 0.0 0.00 0.03 0.00 77 999.2
20260508122630 15 65 0.0 0.0 0.00 0.03 0.00 76 999.3
20260508121630 15 65 0.0 0.0 0.00 0.03 0.00 73 999.4
20260508120630 16 66 0.0 0.0 0.00 0.03 0.00 70 999.4
20260508115630 16 65 1.6 3.2 0.00 0.03 0.00 52 999.4
20260508114630 15 113 1.6 4.8 0.00 0.03 0.00 57 999.5
20260508113630 15 101 0.0 6.4 0.00 0.03 0.00 65 999.6
20260508112630 15 74 0.0 0.0 0.00 0.03 0.00 73 999.6
20260508111630 14 74 0.0 3.2 0.00 0.03 0.00 85 999.7
20260508110630 13 70 0.0 3.2 0.00 0.03 0.00 85 999.8
20260508104630 14 38 0.0 0.0 0.00 0.03 0.00 85 999.6
20260508103631 14 38 0.0 0.0 0.00 0.03 0.00 85 999.6
20260508102631 14 38 0.0 0.0 0.00 0.03 0.00 84 999.4
20260508101630 15 38 0.0 0.0 0.00 0.03 0.00 84 999.3
20260508100630 15 38 0.0 0.0 0.00 0.03 0.00 83 999.1
20260508095630 15 38 0.0 0.0 0.00 0.03 0.00 82 999.1
20260508094630 15 38 0.0 0.0 0.00 0.03 0.00 82 998.9
20260508093630 15 38 0.0 0.0 0.00 0.03 0.00 80 998.8
20260508091630 16 38 0.0 0.0 0.00 0.03 0.00 78 998.7
20260508090631 16 38 0.0 0.0 0.00 0.03 0.00 78 998.5
20260508085630 16 38 0.0 0.0 0.00 0.03 0.00 77 998.4
20260508084630 16 38 0.0 0.0 0.00 0.03 0.00 74 998.1
20260508083630 17 38 0.0 0.0 0.00 0.03 0.00 76 998.1
20260508082630 17 38 0.0 0.0 0.00 0.03 0.00 72 997.8
20260508081630 17 38 0.0 0.0 0.00 0.03 0.00 74 997.7
20260508080630 18 38 0.0 0.0 0.00 0.03 0.00 70 997.5
20260508075630 18 38 0.0 0.0 0.00 0.03 0.00 71 997.3
20260508074632 18 38 0.0 0.0 0.00 0.03 0.00 70 997.1
20260508072630 19 38 0.0 0.0 0.00 0.03 0.00 71 996.9
20260508071630 20 38 0.0 0.0 0.00 0.03 0.00 69 996.7
20260508070631 21 38 0.0 0.0 0.00 0.03 0.00 67 996.6
20260508065630 21 38 0.0 0.0 0.00 0.03 0.00 65 996.4
20260508063630 23 66 0.0 0.0 0.00 0.03 0.00 51 996.1
20260508062630 25 66 0.0 0.0 0.00 0.03 0.03 43 996.1
20260508061630 25 94 0.0 1.6 0.00 0.03 0.03 41 996.1
20260508060630 26 57 0.0 3.2 0.00 0.03 0.03 40 995.9
20260508055630 26 81 0.0 1.6 0.00 0.03 0.03 37 995.8
20260508054630 26 67 0.0 3.2 0.00 0.03 0.03 39 995.8
20260508053630 25 93 1.6 8.0 0.00 0.03 0.03 39 995.8
20260508052630 25 140 3.2 11.3 0.00 0.03 0.03 42 995.8
20260508051630 26 69 1.6 9.7 0.00 0.03 0.03 40 995.7
20260508050632 26 96 1.6 8.0 0.00 0.03 0.03 40 995.7
20260508045630 26 55 1.6 4.8 0.00 0.03 0.03 40 995.6
20260508044630 26 119 0.0 9.7 0.00 0.03 0.03 41 995.6
20260508043631 25 5 1.6 8.0 0.00 0.03 0.03 43 995.6
20260508042631 26 119 3.2 8.0 0.00 0.03 0.03 45 995.7
20260508041631 26 89 4.8 12.9 0.00 0.03 0.03 42 995.9
20260508040630 27 65 0.0 14.5 0.00 0.03 0.03 42 996.0
20260508035630 26 192 1.6 9.7 0.00 0.10 0.03 41 996.1
20260508034630 27 350 1.6 9.7 0.00 0.10 0.03 41 996.2
20260508033630 26 339 1.6 8.0 0.00 0.10 0.03 44 996.3
20260508032630 26 5 3.2 8.0 0.00 0.10 0.03 45 996.4
20260508031631 26 113 4.8 14.5 0.00 0.10 0.03 43 996.5
20260508030630 26 90 3.2 12.9 0.00 0.10 0.03 45 996.7
20260508025631 26 49 1.6 9.7 0.00 0.10 0.03 46 996.8
20260508024631 25 158 1.6 11.3 0.00 0.10 0.03 43 997.1
20260508023631 26 333 3.2 8.0 0.00 0.10 0.03 43 997.2
20260508022631 25 146 0.0 9.7 0.00 0.10 0.03 44 997.4
20260508021631 25 0 1.6 8.0 0.00 0.10 0.03 45 997.5
20260508020631 25 332 1.6 9.7 0.00 0.10 0.03 46 997.7
20260508015631 24 206 3.2 11.3 0.00 0.10 0.03 46 997.9
20260508014631 23 340 4.8 12.9 0.00 0.10 0.03 48 998.1
20260508013631 23 132 3.2 17.7 0.00 0.10 0.03 46 998.2
20260508012631 24 9 1.6 1.6 0.00 0.10 0.03 47 998.3
20260508011631 24 146 3.2 9.7 0.00 0.10 0.03 48 998.6
20260508010631 23 95 1.6 6.4 0.00 0.10 0.03 48 998.8
20260508005634 23 98 4.8 12.9 0.00 0.10 0.03 48 998.9
20260508004631 23 338 3.2 9.7 0.00 0.10 0.03 48 998.9
20260508003631 23 121 1.6 9.7 0.00 0.10 0.03 49 999.0
20260508002631 22 38 0.0 6.4 0.00 0.10 0.03 50 999.0
20260508001631 22 351 1.6 9.7 0.00 0.10 0.03 48 999.2
20260508000631 22 293 0.0 1.6 0.00 0.10 0.03 50 999.3
20260507235631 22 331 3.2 9.7 0.00 0.10 0.03 48 999.2
20260507234631 21 346 3.2 11.3 0.00 0.10 0.03 50 999.2
20260507233631 21 350 1.6 9.7 0.00 0.10 0.03 49 999.2
20260507232631 22 295 1.6 11.3 0.00 0.10 0.03 49 999.4
20260507231632 21 336 1.6 6.4 0.00 0.10 0.03 50 999.3
20260507230631 21 302 1.6 3.2 0.00 0.10 0.03 51 999.2
20260507225631 21 288 0.0 11.3 0.00 0.10 0.03 51 999.2
20260507224631 20 333 0.0 3.2 0.00 0.10 0.03 52 999.2
20260507223631 20 79 1.6 8.0 0.00 0.10 0.03 52 999.1
20260507221631 19 332 0.0 3.2 0.00 0.10 0.03 57 999.0
20260507220631 18 336 1.6 11.3 0.00 0.10 0.03 55 999.0
20260507215631 18 0 0.0 0.0 0.00 0.10 0.03 58 998.9
20260507214631 18 0 0.0 3.2 0.00 0.10 0.03 64 998.8